This is the latest recevied weather packets stored in our database for station/object W7TRD. If no packets are shown the sender has not sent any weather packets the latest 1 day(s).
| Time | Temp. | Humidity | Pressure | Rain* | Wind** | Luminosity | Snow |
|---|---|---|---|---|---|---|---|
| 1778019463 | 17.78° C | 73% | 1017.4 hPa | 0 mm | 0 m/s | 230 W/m² | - |
| 1778019159 | 17.78° C | 71% | 1017.1 hPa | 0 mm | 0.89 m/s, 236° | 251 W/m² | - |
| 1778018856 | 17.78° C | 73% | 1017.1 hPa | 0 mm | 0 m/s | 261 W/m² | - |
| 1778018553 | 17.78° C | 72% | 1017 hPa | 0 mm | 0 m/s | 297 W/m² | - |
| 1778018251 | 17.22° C | 73% | 1017 hPa | 0 mm | 0 m/s | 312 W/m² | - |
| 1778017949 | 17.22° C | 73% | 1017.1 hPa | 0 mm | 0.45 m/s, 191° | 317 W/m² | - |
| 1778017646 | 17.22° C | 73% | 1017.3 hPa | 0 mm | 0.45 m/s, 177° | 313 W/m² | - |
| 1778017344 | 17.22° C | 73% | 1017.4 hPa | 0 mm | 0.89 m/s, 316° | 304 W/m² | - |
| 1778017041 | 17.22° C | 72% | 1017.4 hPa | 0 mm | 0.89 m/s, 95° | 302 W/m² | - |
| 1778016738 | 17.78° C | 73% | 1017.5 hPa | 0 mm | 0.89 m/s, 176° | 292 W/m² | - |
| 1778016434 | 17.78° C | 74% | 1017.5 hPa | 0 mm | 0.45 m/s, 169° | 285 W/m² | - |
| 1778016132 | 17.22° C | 74% | 1017.5 hPa | 0 mm | 0 m/s | 299 W/m² | - |
| 1778015828 | 17.22° C | 74% | 1017.3 hPa | 0 mm | 0.45 m/s, 157° | 307 W/m² | - |
| 1778015526 | 17.22° C | 75% | 1017.4 hPa | 0 mm | 0.45 m/s, 176° | 314 W/m² | - |
| 1778015222 | 17.78° C | 74% | 1017.5 hPa | 0 mm | 0.45 m/s, 219° | 342 W/m² | - |
| 1778014919 | 17.78° C | 75% | 1017.5 hPa | 0 mm | 0.45 m/s, 190° | 396 W/m² | - |
| 1778014616 | 17.78° C | 74% | 1017.5 hPa | 0 mm | 0.89 m/s, 304° | 503 W/m² | - |
| 1778014314 | 16.67° C | 77% | 1017.5 hPa | 0 mm | 0 m/s | 473 W/m² | - |
| 1778014011 | 16.67° C | 76% | 1017.8 hPa | 0 mm | 0.45 m/s, 182° | 450 W/m² | - |
| 1778013709 | 16.67° C | 75% | 1017.7 hPa | 0 mm | 0 m/s | 378 W/m² | - |
| 1778013406 | 16.67° C | 76% | 1017.6 hPa | 0 mm | 0.45 m/s, 199° | 365 W/m² | - |
| 1778013102 | 16.67° C | 77% | 1017.8 hPa | 0 mm | 0.89 m/s, 195° | 351 W/m² | - |
| 1778012798 | 16.11° C | 78% | 1017.9 hPa | 0 mm | 0 m/s | 308 W/m² | - |
| 1778012494 | 16.11° C | 78% | 1017.5 hPa | 0 mm | 0.89 m/s, 148° | 245 W/m² | - |
| 1778012191 | 16.11° C | 80% | 1017.9 hPa | 0 mm | 0 m/s | 205 W/m² | - |
* Rain latest hour (hover to see other rain measurements)
** Current wind speed in m/s (hover to see current wind gust speed)